Location: Congrier
(47.8099°N, 1.1170°W)
Time: 11:52:09
(UTC+00:00)

Cosmos 1763 Rocket - Pass Details

Date: 28 January 2023
Orbit: 733 x 778 km, 74.0° (Epoch: 23 March)

Event Time Altitude Azimuth Distance (km) Brightness Sun altitude
Rises 18:57:46 0° 339° (NNW) 3,241 6.9 -20.0°
Reaches altitude 10° 19:00:13 10° 344° (NNW) 2,304 6.1 -20.4°
Maximum altitude 19:05:22 58° 63° (ENE) 883 3.4 -21.3°
Enters shadow 19:06:30 47° 110° (ESE) 997 3.7 -21.5°
